STARLINK-34587 (64735 NORAD) Tracking and Keplerian Element Data

This shows tracking and keplerian element data for the satellite.

Feedback or suggestion? Click here.




ElementValue
Catalog64735
NameSTARLINK-34587
Epoch Orbit2743
Epoch Day353.835896
Epoch Year2025
RAAN192.1171
Inclination53.1573
Eccentricity0.000101
Argument of Perigee113.1389
Mean Anonmoly246.9718
Mean Motion15.30203991
Decay Rate0.00011746
L11 64735U 25144M 25353.83589600 .00011746 00000+0 40801-3 0 9992
L22 64735 53.1573 192.1171 0001010 113.1389 246.9718 15.30203991 27437



Live tracking and technical data element details for STARLINK-34587 (NORAD 64735). STARLINK-34587 can be tracked NOW for your location showing map with azimuth and elevation plus other details from your city location.







IsCatalogInMostPopularTable: catalog: 64735, numindb: 5
Update: records affected: 1



GetName: 64735 STARLINK-34587

Hit Count: updated at: Tue, 10 Feb 2026 03:39:38 GMT